Total_Precipitation_Accumulation
2.52 2.70 3.07 2.46 1.97 1.75 1.66 1.71 1.76 1.61 1.56 1.59 1.67 1.71 1.74 1.83 1.90 2.05 2.15 2.17 2.31 2.63 2.92 3.15 3.24 3.30 3.39 3.41 3.24 3.05 3.01 3.18 3.26 3.07 2.91 2.69 2.49 2.62 2.84 2.96 2.82 2.05 2.08
2.07 2.32 2.61 2.18 1.76 1.59 1.58 1.72 1.72 1.63 1.52 1.53 1.53 1.56 1.68 1.83 1.86 2.00 2.09 2.28 2.51 2.74 2.89 3.03 3.04 3.03 3.08 2.99 2.85 2.66 2.73 3.12 3.48 3.28 3.02 2.64 2.60 2.64 2.82 2.84 2.79 2.10 2.09
1.49 1.81 1.91 1.90 1.65 1.54 1.53 1.65 1.57 1.49 1.51 1.62 1.64 1.72 1.81 1.95 1.94 1.97 2.09 2.36 2.62 2.79 2.87 2.91 2.87 2.84 2.78 2.72 2.64 2.47 2.76 3.21 3.42 3.42 3.36 2.41 2.29 2.73 2.87 2.75 2.37 2.00 1.98
1.09 1.35 1.43 1.57 1.54 1.44 1.30 1.39 1.48 1.38 1.41 1.55 1.81 2.01 2.12 2.24 2.21 2.22 2.35 2.52 2.73 2.73 2.74 2.72 2.70 2.62 2.58 2.56 2.48 2.56 2.72 3.12 3.36 3.62 3.10 2.06 1.74 2.38 2.75 2.46 2.18 2.08 2.01
1.00 1.09 1.30 1.28 1.22 1.29 1.28 1.34 1.46 1.49 1.47 1.48 1.74 2.04 2.29 2.48 2.51 2.58 2.69 2.82 2.90 2.71 2.58 2.57 2.57 2.35 2.36 2.39 2.49 2.69 2.80 3.24 3.63 3.38 2.46 2.13 2.06 2.32 2.43 2.44 2.37 2.34 2.19
0.85 0.90 1.01 1.20 1.17 1.21 1.23 1.23 1.26 1.39 1.54 1.67 1.85 2.08 2.30 2.57 2.75 2.92 2.91 2.95 2.92 2.69 2.61 2.55 2.46 2.29 2.33 2.43 2.67 2.73 2.83 3.33 3.34 2.35 2.03 1.98 1.99 2.31 2.29 2.53 2.56 2.51 2.39
0.72 0.85 0.94 1.10 1.16 1.17 1.13 1.18 1.23 1.32 1.58 1.78 1.81 1.90 2.10 2.34 2.70 2.84 2.81 2.81 2.66 2.53 2.45 2.47 2.46 2.32 2.30 2.42 2.75 2.72 2.85 3.09 2.50 1.81 1.96 2.06 1.86 1.98 2.18 2.51 2.60 2.52 2.27
0.76 0.73 0.92 1.08 1.13 1.13 1.07 1.13 1.21 1.39 1.60 1.81 1.82 1.85 1.96 2.16 2.41 2.45 2.44 2.41 2.31 2.36 2.37 2.43 2.44 2.27 2.16 2.43 2.61 2.59 2.69 2.54 1.90 1.66 1.72 1.69 1.63 1.82 2.14 2.40 2.44 2.45 2.23
0.97 0.87 0.94 0.98 0.99 1.05 1.14 1.18 1.34 1.56 1.75 1.82 1.81 1.85 2.01 2.13 2.16 2.08 2.13 2.16 2.17 2.21 2.23 2.21 2.14 2.07 2.06 2.28 2.34 2.34 2.54 2.50 1.96 1.81 1.52 1.57 1.84 1.99 2.24 2.40 2.36 2.33 2.26
1.28 1.16 1.06 1.04 1.07 1.03 1.13 1.35 1.55 1.73 1.89 1.97 1.98 2.07 2.21 2.27 2.19 2.20 2.11 2.16 2.24 2.34 2.33 2.34 2.26 2.14 2.14 2.19 2.11 2.24 2.50 2.19 1.77 1.65 1.61 1.58 1.95 2.13 2.31 2.38 2.38 2.29 2.21
1.75 1.45 1.29 1.16 1.19 1.29 1.26 1.36 1.70 1.90 2.01 2.08 2.33 2.55 2.66 2.59 2.41 2.55 2.37 2.57 2.61 2.66 2.67 2.84 2.79 2.54 2.36 2.22 2.32 2.60 2.30 1.86 1.92 1.90 1.84 1.84 2.02 2.24 2.48 2.43 2.36 2.32 2.23
2.01 1.61 1.47 1.30 1.26 1.34 1.48 1.81 2.07 1.94 2.11 2.37 2.70 2.87 3.07 3.00 2.92 2.54 2.80 3.15 3.36 3.60 3.55 3.51 3.35 2.97 2.43 2.19 2.75 2.99 2.04 1.79 1.91 2.02 1.99 2.04 2.24 2.51 2.65 2.46 2.31 2.24 2.18
1.84 1.66 1.62 1.64 1.70 1.58 1.74 1.98 2.21 2.24 2.42 2.58 2.70 2.89 3.09 2.82 2.75 2.84 3.14 3.50 3.74 3.89 3.75 3.78 3.76 3.22 2.82 2.68 2.92 2.86 2.18 2.04 2.02 2.00 2.20 2.35 2.45 2.70 2.95 2.72 2.51 2.41 2.31
2.33 2.11 2.00 2.08 2.08 2.04 1.99 2.14 2.25 2.28 2.38 2.53 2.71 2.71 2.86 3.03 3.11 3.26 3.60 3.56 3.71 3.83 4.17 3.88 4.01 3.67 3.26 2.99 2.96 2.80 2.40 2.35 2.35 2.41 2.71 2.54 2.46 2.81 3.18 3.09 2.86 2.63 2.45
2.90 2.90 2.67 2.46 2.33 2.37 2.52 2.49 2.34 2.46 2.58 2.67 2.86 2.82 2.84 3.16 3.35 3.45 3.54 3.69 3.43 3.47 3.90 4.09 3.88 3.98 3.91 3.59 3.30 3.00 2.86 2.67 2.59 2.62 2.75 2.80 2.70 2.78 3.10 3.25 3.09 2.96 2.72
3.04 3.17 2.97 2.83 2.72 2.77 3.05 3.10 2.93 2.76 3.00 3.00 2.96 2.88 2.96 3.25 3.64 3.80 3.73 3.84 3.62 3.40 3.61 3.84 3.86 4.48 4.30 4.10 3.59 3.25 3.15 3.04 2.87 2.80 2.87 3.05 2.83 2.63 2.77 3.23 3.38 3.27 3.12
3.35 3.28 3.27 3.26 3.19 3.33 3.47 3.39 3.15 3.10 3.01 3.05 3.09 3.15 3.17 3.20 3.60 3.83 4.02 3.98 3.74 3.50 3.69 3.85 4.08 4.38 4.15 3.98 3.70 3.49 3.35 3.24 3.00 2.89 3.11 3.32 3.03 2.87 2.80 2.97 3.29 3.49 3.57
3.69 3.70 3.72 3.55 3.64 3.83 3.91 3.77 3.59 3.48 3.31 3.09 3.01 3.22 3.31 3.38 3.60 3.82 3.79 3.70 3.78 3.69 3.89 4.19 4.33 4.40 4.31 4.14 3.89 3.54 3.33 3.36 2.92 2.80 2.87 2.98 3.07 2.81 2.97 3.23 3.43 3.49 3.72
4.20 4.38 4.44 4.37 4.27 4.24 4.22 4.12 4.16 4.14 3.91 3.56 3.39 3.45 3.51 3.38 3.41 3.66 3.67 3.76 3.82 3.82 3.86 3.57 4.15 4.20 4.32 4.18 3.57 3.37 3.07 3.07 2.97 2.65 2.64 2.49 2.63 2.69 2.71 2.84 3.13 3.24 3.74
4.48 5.00 5.01 4.88 4.90 4.96 4.91 4.60 4.60 4.39 4.12 3.97 3.89 4.00 3.76 3.53 3.40 3.64 3.65 3.77 3.79 3.88 3.92 3.86 4.14 4.12 3.99 3.97 3.23 3.10 2.96 2.70 2.63 2.58 2.37 2.32 2.41 2.29 2.41 2.65 2.97 2.75 3.23
4.76 5.25 5.51 5.59 5.51 5.27 4.95 4.59 4.39 4.34 4.30 4.11 3.88 3.69 3.57 3.47 3.52 3.87 3.75 4.09 3.97 3.77 3.74 3.83 4.10 3.99 3.73 3.78 3.80 3.30 2.72 2.39 2.43 2.30 2.37 2.45 2.29 2.30 2.54 2.91 3.03 2.85 2.62
4.36 4.83 5.02 4.82 4.81 4.67 4.45 4.38 4.36 4.56 4.27 4.02 3.85 3.68 3.41 3.37 3.46 3.47 3.85 3.80 3.83 3.97 3.88 3.86 4.06 3.86 3.44 3.59 3.92 3.91 3.20 2.95 2.46 1.98 2.21 2.32 2.39 2.62 2.69 2.71 3.04 3.17 2.88
3.32 3.61 3.83 4.02 4.01 3.94 3.94 3.92 4.01 4.23 4.07 3.92 3.77 3.67 3.29 3.11 3.11 3.26 3.42 3.58 3.93 3.80 3.82 3.89 3.82 3.75 3.48 3.43 3.62 3.99 3.56 3.09 2.58 2.05 1.95 2.21 2.56 2.77 2.71 2.79 2.89 3.07 3.14
2.96 3.18 3.27 3.35 3.47 3.53 3.64 3.55 3.43 3.35 3.36 3.36 3.42 3.36 3.33 3.17 3.06 3.12 3.25 3.42 3.59 3.39 3.44 3.12 3.25 3.55 3.70 3.42 3.51 3.45 3.38 3.26 3.15 2.59 2.18 2.14 2.42 2.59 2.76 2.73 2.84 2.98 3.23
2.38 2.63 2.78 2.90 3.00 3.20 3.29 3.25 3.24 3.06 3.08 3.17 3.21 3.23 3.21 3.16 3.08 3.06 3.08 3.14 3.16 2.99 3.05 2.98 3.20 3.22 3.24 3.24 3.34 3.41 3.50 3.44 3.24 3.07 2.70 2.56 2.48 2.25 2.34 2.52 2.73 2.86 3.08
2.11 2.31 2.43 2.56 2.61 2.78 2.89 2.99 3.11 3.09 3.01 3.00 3.01 3.02 3.02 3.01 2.91 2.84 2.79 2.83 2.84 2.82 2.87 2.92 3.05 2.96 3.01 3.16 3.22 3.25 3.41 3.41 3.43 3.43 2.91 2.68 2.49 2.05 2.03 2.03 2.24 2.48 2.87